Flag for U.S.A. Weather past 2 weeks in New York, New York, U.S.A.

Now
70 °F

Overcast.


Feels Like: 76 °F
Forecast: 54 / 73 °F
Wind: 12 mph from Northwest

Location: New York City - Central Park

Current Time: May 22, 2015 at 5:29:08 PM

Latest Report: May 22, 2015 at 4:51 PM


Visibility: 10 mi

Pressure: 29.94 "Hg

Humidity: 31%

Dew point: 38 °F

Location of New YorkLocation

Historic Weather in New York — Graph

°F

New York temperature yesterday

Maximum temperature yesterday: 61 °F (at 12:51 PM)
Minimum temperature yesterday: 52 °F (at 3:51 AM)
Average temperature yesterday: 56 °F

Past Weeks' High & Low Weather Summary

 TemperatureHumidityPressure
High85 °F (May 12, 1:51 PM)93% (May 16, 11:46 PM)30.40 "Hg (May 16, 11:46 PM)
Low50 °F (May 14, 5:51 AM)17% (May 14, 3:51 PM)29.75 "Hg (May 12, 6:51 PM)
Average66 °F61%30.09 "Hg
* Reported May 7 3:51 PM — May 22 3:51 PM, New York, Weather by CustomWeather, © 2015

Note: Actual official high and low records may vary slightly from our data, if they occured in-between our weather recording intervals... More about our weather records

Advertising

New York weather history for previous 24 hours

 ConditionsComfort  
Time TempWeatherWind HumidityBarometerVisibility
3:51 PM
Fri, May 22
68 °FOvercast.10 mph36%29.93 "Hg10 mi
2:51 PM71 °FBroken clouds.6 mph29%29.91 "Hg10 mi
1:51 PM72 °FPartly sunny.5 mph28%29.90 "Hg10 mi
12:51 PM71 °FScattered clouds.6 mph31%29.91 "Hg10 mi
11:51 AM72 °FPassing clouds.7 mph30%29.92 "Hg10 mi
10:51 AM68 °FSunny.6 mph33%29.92 "Hg10 mi
9:51 AM64 °FSunny.8 mph41%29.92 "Hg10 mi
8:51 AM60 °FSunny.3 mph47%29.92 "Hg10 mi
7:51 AM58 °FSunny.5 mph54%29.91 "Hg10 mi
6:51 AM56 °FSunny.No wind60%29.90 "Hg10 mi
5:51 AM55 °FClear.N/A62%29.88 "Hg10 mi
4:51 AM56 °FOvercast.No wind62%29.85 "Hg10 mi
3:51 AM56 °FOvercast.No wind65%29.85 "Hg10 mi
2:51 AM55 °FOvercast.6 mph67%29.85 "Hg10 mi
1:51 AM55 °FOvercast.7 mph69%29.86 "Hg10 mi
12:51 AM55 °FOvercast.3 mph72%29.88 "Hg10 mi
11:51 PM
Thu, May 21
55 °FMostly cloudy.3 mph72%29.88 "Hg10 mi
10:51 PM55 °FMostly cloudy.No wind67%29.89 "Hg10 mi
9:51 PM55 °FMostly cloudy.No wind62%29.91 "Hg10 mi
8:51 PM55 °FOvercast.5 mph59%29.91 "Hg10 mi
7:51 PM56 °FMostly cloudy.3 mph65%29.92 "Hg10 mi
6:51 PM58 °FMostly cloudy.3 mph65%29.91 "Hg10 mi
5:51 PM58 °FMore clouds than sun.6 mph58%29.92 "Hg10 mi
Weather by CustomWeather, © 2015

See weather overviewHow to use our weather pages